sat.trackr.live / text

‹ back to catalog

ASIASAT 4

NORAD 27718 · 2003-014A

PAYLOAD ACTIVE UNKNOWN

§ Identity

Operator
Country
AC
Launch date
2003-04-12
Launch site
AFETR
Launch vehicle
Mass (kg)
RCS (m²)
25.12

Purposes: comms

External: N2YO · Heavens-Above · Gunter

§ Orbital elements

Epoch: 2026-09-19T21:05:35.104992Z

Period
1,436.08 min
Inclination
4.9400°
Eccentricity
0.0002721
Mean motion
1.00272823 rev/d
Perigee alt
35,774.8 km
Apogee alt
35,797.8 km
Semi-major
42,164.4 km
B*
0.0000e+0
RAAN
74.5063°
Arg perigee
108.4457°
Mean anomaly
279.7944°
Rev number
4,625

§ Raw data

ASIASAT 41 27718U 03014A   26262.87887853 -.00000224  00000+0  00000+0 0  99922 27718   4.9400  74.5063 0002721 108.4457 279.7944  1.00272823 46254

JSON: /api/v1/satellites/27718 · /tle

For live sub-satellite position, see the globe view (requires WebGL).

§ Visibility from observer

Set your observer location to see the next 7 days of passes ≥ 10°. The values pass through the URL so the page stays shareable.

No JS? Fill the form by hand. The geolocation button needs JavaScript.